FW6987 Weather Reports


time (UTC)temp
F
wind
direction
speed
knots
gust
knots
rain 1hr
in
rain 24hr
in
rain mn
in
humidity
%
barometer
mb
20260510101558 49 0 0.0 0.9 0.00 0.42 0.02 96 1002.1
20260510100056 49 0 0.0 1.7 0.00 0.42 0.02 96 1002.0
20260510094555 49 0 0.0 1.7 0.00 0.43 0.02 96 1001.9
20260510093107 49 0 0.0 0.0 0.00 0.43 0.02 96 1001.8
20260510091558 49 0 0.0 0.9 0.00 0.43 0.02 96 1001.4
20260510090059 50 0 0.0 0.9 0.00 0.43 0.02 96 1001.4
20260510084554 50 0 0.0 0.0 0.00 0.45 0.02 96 1001.2
20260510083053 50 0 0.0 0.0 0.00 0.45 0.02 96 1001.4
20260510081623 50 0 0.0 2.6 0.00 0.45 0.02 96 1001.7
20260510080051 50 0 0.0 0.9 0.00 0.45 0.02 96 1001.6
20260510074556 51 182 0.0 0.9 0.01 0.48 0.02 96 1002.1
20260510073101 51 0 0.0 0.9 0.01 0.48 0.02 96 1002.0
20260510071551 51 0 0.0 1.7 0.01 0.48 0.02 96 1002.2
20260510070051 50 0 0.0 0.0 0.01 0.48 0.02 96 1002.3
20260510064557 50 0 0.0 1.7 0.00 0.48 0.01 96 1002.3
20260510063050 50 0 0.0 2.6 0.00 0.48 0.01 96 1002.3
20260510061552 50 0 0.0 2.6 0.00 0.48 0.01 96 1001.6
20260510060057 51 0 0.0 0.0 0.00 0.48 0.01 96 1001.6
20260510054551 51 0 0.0 0.0 0.00 0.48 0.01 96 1001.6
20260510053107 51 0 0.0 0.0 0.00 0.48 0.01 96 1001.7
20260510051604 51 0 0.0 2.6 0.00 0.48 0.01 96 1001.8
20260510050100 51 0 0.0 0.0 0.01 0.48 0.01 96 1001.6
20260510044604 51 0 0.0 0.0 0.01 0.48 0.01 96 1001.5
20260510043057 51 0 0.0 0.0 0.01 0.48 0.01 96 1001.5
20260510041550 51 0 0.0 0.0 0.01 0.48 0.01 96 1001.4
20260510040054 51 0 0.0 0.0 0.00 0.47 0.00 95 1001.4
20260510034556 51 0 0.0 0.0 0.00 0.47 0.47 95 1001.3
20260510033108 51 0 0.0 0.0 0.00 0.47 0.47 95 1001.3
20260510031552 52 0 0.0 0.0 0.00 0.47 0.47 95 1001.4
20260510030107 52 0 0.0 0.0 0.00 0.47 0.47 95 1001.7
20260510024553 52 0 0.0 0.0 0.00 0.47 0.47 95 1001.5
20260510023052 52 0 0.0 0.0 0.01 0.47 0.47 95 1001.6
20260510021551 52 0 0.0 1.7 0.01 0.47 0.47 95 1001.5
20260510020053 52 0 0.0 2.6 0.01 0.47 0.47 95 1001.1
20260510014553 52 0 0.0 2.6 0.01 0.47 0.47 95 1001.3
20260510013051 52 0 0.0 0.9 0.00 0.46 0.46 95 1001.4
20260510011548 52 0 0.0 0.9 0.00 0.46 0.46 95 1001.2
20260510010051 52 0 0.0 0.0 0.01 0.46 0.46 95 1001.1
20260510004548 53 0 0.0 0.0 0.01 0.46 0.46 95 1000.8
20260510003054 53 0 0.0 1.7 0.01 0.46 0.46 95 1000.7
20260510001556 53 0 0.0 0.0 0.01 0.46 0.46 95 1000.7
20260510000054 53 0 0.0 0.0 0.01 0.45 0.45 95 1000.4
20260509234556 53 0 0.0 1.7 0.01 0.45 0.45 95 1000.1
20260509233059 53 0 0.0 0.0 0.01 0.45 0.45 95 1000.0
20260509231552 53 0 0.0 0.0 0.01 0.45 0.45 95 1000.0
20260509230051 53 0 0.0 0.9 0.01 0.44 0.44 95 1000.1
20260509224600 53 0 0.0 1.7 0.01 0.44 0.44 95 1000.1
20260509223100 53 0 0.0 0.9 0.02 0.44 0.44 95 1000.3
20260509221555 53 0 0.0 0.0 0.02 0.44 0.44 95 1000.2
20260509214554 53 0 0.0 0.9 0.03 0.43 0.43 95 1000.3
20260509213056 53 0 0.0 0.9 0.03 0.42 0.42 95 1000.4
20260509211602 53 0 0.0 0.0 0.03 0.42 0.42 95 1000.3
20260509210053 53 0 0.0 0.9 0.03 0.41 0.41 95 1000.5
20260509204555 53 216 0.0 1.7 0.04 0.40 0.40 95 1000.6
20260509203103 52 0 0.0 0.9 0.04 0.39 0.39 95 1000.8
20260509201602 52 0 0.0 0.9 0.05 0.39 0.39 94 1001.2
20260509200108 52 0 0.0 1.7 0.04 0.37 0.37 94 1001.2
20260509194553 52 0 0.0 2.6 0.05 0.36 0.36 94 1001.6
20260509193113 52 0 0.0 0.9 0.05 0.35 0.35 94 1001.7
20260509191559 52 139 0.9 1.7 0.06 0.34 0.34 94 1001.8
20260509190053 52 139 0.0 1.7 0.06 0.33 0.33 94 1001.9
20260509184604 52 0 0.0 0.0 0.06 0.31 0.31 94 1002.3
20260509183056 52 0 0.0 0.0 0.06 0.30 0.30 94 1002.2
20260509181555 52 0 0.0 1.7 0.06 0.28 0.28 94 1002.1
20260509180054 51 0 0.0 0.9 0.05 0.27 0.27 94 1002.1
20260509174558 52 0 0.0 1.7 0.05 0.25 0.25 94 1002.1
20260509173105 52 175 0.0 0.9 0.05 0.24 0.24 94 1002.0
20260509171612 52 0 0.0 0.9 0.04 0.22 0.22 94 1001.8
20260509170057 52 0 0.0 1.7 0.05 0.22 0.22 94 1001.6
20260509164554 51 0 0.0 0.0 0.05 0.20 0.20 94 1002.1
20260509163124 51 0 0.0 0.9 0.05 0.19 0.19 94 1002.3
20260509161556 50 0 0.0 0.0 0.05 0.18 0.18 94 1002.7
20260509160058 50 0 0.0 0.0 0.05 0.17 0.17 94 1003.0
20260509154610 50 0 0.0 0.0 0.03 0.15 0.15 94 1003.2
20260509153057 50 0 0.0 0.0 0.02 0.14 0.14 94 1003.1
20260509151603 49 0 0.0 0.0 0.02 0.13 0.13 94 1002.8
20260509150112 49 0 0.0 0.0 0.01 0.12 0.12 94 1002.9
20260509144708 49 0 0.0 0.0 0.01 0.12 0.12 94 1003.0
20260509143057 49 0 0.0 0.0 0.02 0.12 0.12 94 1003.0
20260509141550 48 0 0.0 0.0 0.01 0.11 0.11 94 1003.0
20260509140059 48 0 0.0 0.0 0.02 0.11 0.11 94 1003.1
20260509134557 48 0 0.0 0.0 0.01 0.10 0.10 93 1003.2
20260509133054 48 0 0.0 0.0 0.01 0.10 0.10 93 1003.3
20260509131553 47 0 0.0 0.0 0.01 0.10 0.10 93 1003.5
20260509130105 47 0 0.0 0.0 0.00 0.09 0.09 93 1003.2
20260509124611 46 0 0.0 0.0 0.01 0.09 0.09 92 1002.9
20260509123059 46 0 0.0 0.0 0.01 0.09 0.09 92 1003.0
20260509121552 45 67 0.0 2.6 0.01 0.09 0.09 92 1003.2
20260509120104 45 0 0.0 0.0 0.02 0.09 0.09 91 1003.5
20260509114554 44 0 0.0 0.0 0.01 0.08 0.08 91 1003.6
20260509113055 44 0 0.0 0.0 0.01 0.08 0.08 90 1003.6
20260509111552 44 0 0.0 0.0 0.01 0.08 0.08 90 1003.6
20260509110053 43 0 0.0 0.0 0.00 0.07 0.07 90 1003.6
20260509104548 43 0 0.0 0.9 0.00 0.07 0.07 89 1003.4
20260509103049 43 59 0.0 5.2 0.00 0.07 0.07 89 1003.3